Kanopolis, KS

1:13 AM CST on December 18, 2014 (GMT -0600)
Hutchinson Municipal | Change Station
CLOSE
Current Station
Airport
Location: Hutchinson,
Elevation: 1542 ft
Nearby Weather Stations
Active Advisory: Winter Weather Advisory Active Notice: Local Storm Report

Elev 1542 ft 38.07 °N, 97.86 °W | Updated 21 minutes ago

Snow
Snow
30 °F
Feels Like 22 °F
N
8
Wind Variable Wind from ESE

Today
High -- | Low -- °F
--% Chance of Precip.
Yesterday
High -- | Low -- °F
Precip. -- in
7:45 AM 5:13 PM
Waning Crescent, 16% visible
Pressure 30.17 in
Visibility 1.0 miles
Clouds Scattered Clouds 700 ft
Overcast 1600 ft
Windchill 22 °F
Dew Point 26 °F
Humidity 85%
Rainfall 0.00 in
Snow Depth Not available.
UV 0 out of 12
Pollen .10 out of 12
Air Quality Not available.
Flu Activity Not available.
METAR KHUT 180652Z AUTO 11007KT 1SM R13/P6000FT -SN BR SCT007 OVC016 M01/M03 A3014 RMK AO2 SLP215 P0000 T10111033

More Conditions Fewer Conditions

Pressure 30.17 in
Visibility 1.0 miles
Clouds Scattered Clouds 700 ft
Overcast 1600 ft
Windchill 22 °F
Dew Point 26 °F
Humidity 85%
Rainfall 0.00 in
Snow Depth Not available.
UV 0 out of 12
Pollen .10 out of 12
Air Quality Not available.
Flu Activity Not available.
METAR KHUT 180652Z AUTO 11007KT 1SM R13/P6000FT -SN BR SCT007 OVC016 M01/M03 A3014 RMK AO2 SLP215 P0000 T10111033

More Conditions Fewer Conditions

10-Day Weather Forecast

Almanac

Astronomy

Dec. 18, 2014 Rise Set
Actual Time
Civil Twilight
Nautical Twilight
Astronomical Twilight
Moon
Length of Visible Light
Length of Day
Tomorrow will be .
, % of the Moon is Illuminated

Today's Extremes

State Highs State Lows

Community

WunderPhotos

Upload Photos

1,778,897 photos uploaded!

WunderBlogs® & News

Nearby

Air Quality

  Air Quality AQ Index Pollutant
Not available.

Snow Depth

Station Depth Elevation

Earthquake Activity

City Distance Mag. Time & Date
Minimum magnitude displayed is 2.5.

Coastal Water Temperatures

Place Temperature

Nearby Weather Stations